FW7308 Weather Reports


time (UTC)temp
C
wind
direction
speed
KPH
gust
KPH
rain 1hr
cm
rain 24hr
cm
rain mn
cm
humidity
%
barometer
mb
20260905060726 15 323 3.2 3.2 0.00 0.00 0.00 99 1013.3
20260905060228 15 329 1.6 3.2 0.00 0.00 0.00 99 1013.3
20260905055727 15 321 3.2 3.2 0.00 0.00 0.00 98 1013.3
20260905055226 15 322 1.6 1.6 0.00 0.00 0.00 99 1013.1
20260905054725 15 325 1.6 1.6 0.00 0.00 0.00 98 1013.3
20260905053725 15 328 1.6 1.6 0.00 0.00 0.00 98 1013.3
20260905053224 15 319 1.6 1.6 0.00 0.00 0.00 98 1013.3
20260905052729 16 327 1.6 1.6 0.00 0.00 0.00 98 1013.3
20260905052225 16 327 3.2 3.2 0.00 0.00 0.00 98 1013.3
20260905051724 16 321 1.6 3.2 0.00 0.00 0.00 98 1013.3
20260905050722 16 325 1.6 3.2 0.00 0.00 0.00 98 1013.3
20260905050222 16 328 3.2 4.8 0.00 0.00 0.00 98 1013.3
20260905045723 16 328 3.2 3.2 0.00 0.00 0.00 97 1013.3
20260905045222 16 325 1.6 3.2 0.00 0.00 0.00 97 1013.3
20260905044721 16 325 1.6 3.2 0.00 0.00 0.00 97 1013.3
20260905044220 16 328 1.6 1.6 0.00 0.00 0.00 99 1013.3
20260905043721 16 321 1.6 1.6 0.00 0.00 0.00 99 1013.7
20260905043221 15 319 1.6 1.6 0.00 0.00 0.00 99 1013.3
20260905042720 15 323 1.6 3.2 0.00 0.00 0.00 99 1013.3
20260905042219 15 324 1.6 3.2 0.00 0.00 0.00 99 1013.3
20260905041720 15 323 1.6 1.6 0.00 0.00 0.00 99 1013.3
20260905041219 15 319 1.6 1.6 0.00 0.00 0.00 99 1013.3
20260905040719 15 325 3.2 3.2 0.00 0.00 0.00 99 1013.3
20260905040218 15 325 3.2 3.2 0.00 0.00 0.00 99 1013.3
20260905035821 15 319 1.6 1.6 0.00 0.00 0.00 99 1013.3
20260905035219 15 319 3.2 3.2 0.00 0.00 0.00 99 1013.7
20260905034719 15 323 3.2 3.2 0.00 0.00 0.00 99 1013.3
20260905034216 15 327 1.6 3.2 0.00 0.00 0.00 99 1013.3
20260905033718 15 319 3.2 3.2 0.00 0.00 0.00 99 1013.5
20260905033217 15 327 1.6 1.6 0.00 0.00 0.00 99 1013.3
20260905032716 15 321 3.2 3.2 0.00 0.00 0.00 99 1013.5
20260905032215 15 328 1.6 1.6 0.00 0.00 0.00 99 1013.5
20260905031746 16 319 1.6 1.6 0.00 0.00 0.00 99 1013.7
20260905031245 16 324 1.6 1.6 0.00 0.00 0.00 99 1013.3
20260905030745 16 325 1.6 1.6 0.00 0.00 0.00 99 1013.5
20260905030244 16 322 3.2 3.2 0.00 0.00 0.00 99 1013.3
20260905025745 16 328 3.2 3.2 0.00 0.00 0.00 99 1013.3
20260905025244 16 321 3.2 3.2 0.00 0.00 0.00 98 1013.5
20260905024743 16 320 3.2 3.2 0.00 0.00 0.00 98 1013.7
20260905024243 16 327 3.2 3.2 0.00 0.00 0.00 98 1013.7
20260905023846 16 319 3.2 3.2 0.00 0.00 0.00 97 1013.7
20260905023343 16 319 1.6 3.2 0.00 0.00 0.00 97 1013.7
20260905022744 16 319 3.2 3.2 0.00 0.00 0.00 96 1013.7
20260905022243 16 323 3.2 3.2 0.00 0.00 0.00 96 1013.8
20260905021740 16 324 3.2 3.2 0.00 0.00 0.00 96 1013.8
20260905021241 16 320 3.2 3.2 0.00 0.00 0.00 96 1013.7
20260905020741 16 321 3.2 3.2 0.00 0.00 0.00 96 1013.7
20260905020240 16 323 3.2 3.2 0.00 0.00 0.00 96 1014.0
20260905015739 16 322 3.2 3.2 0.00 0.00 0.00 96 1014.0
20260905015240 16 325 3.2 3.2 0.00 0.00 0.00 97 1013.7
20260905014739 16 324 3.2 3.2 0.00 0.00 0.00 97 1014.0
20260905014239 16 321 3.2 3.2 0.00 0.00 0.00 97 1014.0
20260905013738 16 323 3.2 3.2 0.00 0.00 0.00 97 1014.0
20260905013240 16 321 3.2 3.2 0.00 0.00 0.00 97 1014.0
20260905012739 16 321 3.2 3.2 0.00 0.00 0.00 97 1014.0
20260905012237 16 326 3.2 3.2 0.00 0.00 0.00 97 1014.0
20260905011737 16 324 3.2 3.2 0.00 0.00 0.00 97 1014.0
20260905011238 16 321 3.2 3.2 0.00 0.00 0.00 97 1013.8
20260905010737 16 320 3.2 3.2 0.00 0.00 0.00 97 1014.0
20260905010236 16 319 3.2 3.2 0.00 0.00 0.00 97 1014.0
20260905005839 16 321 3.2 3.2 0.00 0.00 0.00 97 1014.0
20260905005235 16 319 3.2 3.2 0.00 0.00 0.00 96 1014.0
20260905004736 16 321 3.2 3.2 0.00 0.00 0.00 96 1014.0
20260905004235 16 318 1.6 1.6 0.00 0.00 0.00 96 1014.0
20260905003839 16 321 1.6 1.6 0.00 0.00 0.00 96 1013.7
20260905003338 16 322 1.6 1.6 0.00 0.00 0.00 96 1014.0
20260905002735 17 323 1.6 1.6 0.00 0.00 0.00 96 1014.0
20260905002234 17 321 1.6 3.2 0.00 0.00 0.00 96 1014.0
20260905001733 17 319 1.6 3.2 0.00 0.00 0.00 95 1014.0
20260905001234 17 323 1.6 3.2 0.00 0.00 0.00 95 1014.0
20260905000733 17 321 1.6 3.2 0.00 0.00 0.00 95 1014.0
20260905000233 17 321 1.6 1.6 0.00 0.00 0.00 95 1014.0
20260904235832 17 322 1.6 1.6 0.00 0.00 0.00 94 1013.7
20260904235231 17 323 1.6 1.6 0.00 0.00 0.00 93 1013.7
20260904234734 17 325 0.0 1.6 0.00 0.00 0.00 93 1013.7
20260904234233 18 322 1.6 1.6 0.00 0.00 0.00 92 1013.7
20260904233734 18 322 0.0 1.6 0.00 0.00 0.00 91 1013.7
20260904233232 18 327 1.6 1.6 0.00 0.00 0.00 91 1013.3
20260904232731 18 323 0.0 1.6 0.00 0.00 0.00 90 1013.7
20260904232230 18 328 1.6 1.6 0.00 0.00 0.00 89 1013.7
20260904231729 18 0.0 0.0 0.00 0.00 0.00 90 1013.3
20260904231229 19 0.0 0.0 0.00 0.00 0.00 89 1013.3
20260904220827 22 323 1.6 1.6 0.00 0.00 0.00 76 1013.0
20260904220225 22 325 3.2 3.2 0.00 0.00 0.00 75 1013.3
20260904215725 22 319 1.6 1.6 0.00 0.00 0.00 76 1013.3
20260904215224 22 319 1.6 3.2 0.00 0.00 0.00 74 1013.3
20260904214722 22 326 3.2 4.8 0.00 0.00 0.00 73 1013.3
20260904214224 23 312 3.2 3.2 0.00 0.00 0.00 72 1013.3
20260904213723 23 312 4.8 8.0 0.00 0.00 0.00 71 1013.3
20260904213224 23 301 4.8 4.8 0.00 0.00 0.00 71 1013.3
20260904212724 23 325 1.6 1.6 0.00 0.00 0.00 72 1013.3
20260904212222 23 337 3.2 3.2 0.00 0.00 0.00 73 1013.3
20260904211721 22 346 0.0 1.6 0.00 0.00 0.00 73 1013.3
20260904211222 22 308 4.8 8.0 0.00 0.00 0.00 74 1013.3
20260904210721 23 324 6.4 8.0 0.00 0.00 0.00 71 1013.3
20260904210221 23 339 4.8 8.0 0.00 0.00 0.00 72 1013.3
20260904205720 23 295 9.7 12.9 0.00 0.00 0.00 70 1013.3
20260904205219 23 324 4.8 14.5 0.00 0.00 0.00 70 1013.3
20260904204720 23 298 4.8 4.8 0.00 0.00 0.00 71 1013.3
20260904204321 23 322 6.4 11.3 0.00 0.00 0.00 70 1013.1
20260904203819 23 315 4.8 8.0 0.00 0.00 0.00 71 1013.3
20260904203218 23 323 4.8 4.8 0.00 0.00 0.00 72 1013.3
20260904202720 22 340 3.2 3.2 0.00 0.00 0.00 74 1013.3
20260904202218 22 326 1.6 1.6 0.00 0.00 0.00 73 1013.3
20260904201717 23 325 1.6 3.2 0.00 0.00 0.00 72 1013.3
20260904201216 23 310 6.4 9.7 0.00 0.00 0.00 71 1013.3
20260904200717 23 329 3.2 4.8 0.00 0.00 0.00 70 1013.0
20260904200217 23 280 6.4 9.7 0.00 0.00 0.00 68 1013.3
20260904195716 23 322 3.2 8.0 0.00 0.00 0.00 66 1013.3
20260904195245 23 320 3.2 8.0 0.00 0.00 0.00 69 1013.3
20260904194746 23 344 4.8 8.0 0.00 0.00 0.00 70 1013.0
20260904194245 23 327 0.0 1.6 0.00 0.00 0.00 67 1013.3
20260904193745 23 308 6.4 9.7 0.00 0.00 0.00 65 1013.3
20260904193244 25 332 6.4 9.7 0.00 0.00 0.00 64 1013.3
20260904192743 24 287 8.0 9.7 0.00 0.00 0.00 65 1013.1
20260904192244 24 326 9.7 12.9 0.00 0.00 0.00 64 1013.3
20260904191743 -17 0.0 0.0 0.00 0.00 0.00 1013.3
20260904191243 -17 0.0 0.0 0.00 0.00 0.00 1013.3
20260904190742 -17 0.0 0.0 0.00 0.00 0.00 1013.3
20260904190243 -17 0.0 0.0 0.00 0.00 0.00 1013.3
20260904185742 23 291 4.8 8.0 0.00 0.00 0.00 66 1013.3
20260904185241 23 291 4.8 8.0 0.00 0.00 0.00 66 1013.3
20260904184742 23 313 4.8 4.8 0.00 0.00 0.00 66 1013.7
20260904184242 23 297 4.8 4.8 0.00 0.00 0.00 66 1013.7
20260904183741 23 343 3.2 3.2 0.00 0.00 0.00 65 1013.7
20260904183240 23 346 4.8 8.0 0.00 0.00 0.00 65 1013.7
20260904182739 23 334 1.6 1.6 0.00 0.00 0.00 65 1013.3
20260904182240 23 337 14.5 22.5 0.00 0.00 0.00 63 1013.7
20260904181740 23 287 4.8 9.7 0.00 0.00 0.00 65 1013.7
20260904181239 23 336 9.7 17.7 0.00 0.00 0.00 63 1013.7
20260904180738 24 339 14.5 17.7 0.00 0.00 0.00 61 1013.7
20260904180239 24 336 8.0 17.7 0.00 0.00 0.00 62 1013.8
20260904175739 24 312 1.6 3.2 0.00 0.00 0.00 63 1013.7
20260904175239 -17 0.0 0.0 0.00 0.00 0.00 1013.7
20260904174739 23 333 14.5 20.9 0.00 0.00 0.00 60 1013.7
20260904174238 23 333 14.5 20.9 0.00 0.00 0.00 60 1013.7
20260904173737 -17 0.0 0.0 0.00 0.00 0.00 1013.3
20260904173237 -17 0.0 0.0 0.00 0.00 0.00 1013.3
20260904172735 -17 0.0 0.0 0.00 0.00 0.00 1013.3
20260904172236 -17 0.0 0.0 0.00 0.00 0.00 1013.3
20260904171736 25 281 6.4 9.7 0.00 0.00 0.00 60 1013.3
20260904171235 25 281 6.4 9.7 0.00 0.00 0.00 60 1013.7
20260904170734 24 340 11.3 17.7 0.00 0.00 0.00 62 1013.3
20260904170235 24 281 11.3 14.5 0.00 0.00 0.00 65 1013.7
20260904165233 -17 0.0 0.0 0.00 0.00 0.00 1013.7
20260904164732 24 12 6.4 9.7 0.00 0.00 0.00 64 1013.7
20260904164234 24 12 6.4 9.7 0.00 0.00 0.00 64 1013.8
20260904163733 25 331 8.0 11.3 0.00 0.00 0.00 64 1013.7
20260904163232 25 6 9.7 16.1 0.00 0.00 0.00 61 1013.7
20260904162731 25 6 9.7 16.1 0.00 0.00 0.00 61 1013.8
20260904162232 24 328 3.2 3.2 0.00 0.00 0.00 65 1013.8
20260904161732 24 356 16.1 17.7 0.00 0.00 0.00 63 1014.0
20260904161231 23 336 4.8 4.8 0.00 0.00 0.00 65 1013.8
20260904160730 23 336 4.8 4.8 0.00 0.00 0.00 65 1014.0
20260904160231 24 316 3.2 3.2 0.00 0.00 0.00 64 1013.8
20260904155732 23 349 4.8 8.0 0.00 0.00 0.00 66 1014.0
20260904155231 23 323 16.1 24.1 0.00 0.00 0.00 67 1014.0
20260904154831 24 315 9.7 11.3 0.00 0.00 0.00 68 1014.0
20260904154230 23 2 4.8 4.8 0.00 0.00 0.00 68 1014.0
20260904153729 23 265 4.8 9.7 0.00 0.00 0.00 68 1014.0
20260904153228 23 317 8.0 12.9 0.00 0.00 0.00 68 1014.0
20260904152727 23 307 3.2 3.2 0.00 0.00 0.00 70 1014.0
20260904152229 23 288 6.4 8.0 0.00 0.00 0.00 71 1014.0
20260904151728 23 354 4.8 8.0 0.00 0.00 0.00 72 1014.4
20260904151227 23 337 12.9 14.5 0.00 0.00 0.00 72 1014.2
20260904150726 23 356 4.8 8.0 0.00 0.00 0.00 74 1014.4
20260904150227 22 326 3.2 4.8 0.00 0.00 0.00 76 1014.4
20260904145726 22 339 3.2 4.8 0.00 0.00 0.00 76 1014.2
20260904145226 23 329 0.0 4.8 0.00 0.00 0.00 76 1014.0
20260904144725 22 327 3.2 4.8 0.00 0.00 0.00 78 1014.4
20260904144226 23 311 4.8 9.7 0.00 0.00 0.00 76 1014.2
20260904143725 22 321 1.6 4.8 0.00 0.00 0.00 78 1014.2
20260904143224 22 327 1.6 1.6 0.00 0.00 0.00 82 1014.4
20260904142723 22 335 8.0 11.3 0.00 0.00 0.00 79 1014.4
20260904142227 22 333 3.2 4.8 0.00 0.00 0.00 82 1014.4
20260904141824 23 320 3.2 9.7 0.00 0.00 0.00 79 1014.4
20260904141224 22 331 1.6 3.2 0.00 0.00 0.00 81 1014.4
20260904140723 22 331 1.6 3.2 0.00 0.00 0.00 81 1014.4
20260904140223 21 325 1.6 3.2 0.00 0.00 0.00 85 1014.4
20260904135723 22 304 4.8 4.8 0.00 0.00 0.00 85 1014.4
20260904135222 22 355 8.0 11.3 0.00 0.00 0.00 84 1014.4
20260904134721 21 329 0.0 1.6 0.00 0.00 0.00 86 1014.5
20260904134222 21 334 1.6 1.6 0.00 0.00 0.00 86 1014.4
20260904133721 21 334 1.6 1.6 0.00 0.00 0.00 86 1014.4
20260904133221 21 326 4.8 4.8 0.00 0.00 0.00 87 1014.4
20260904132720 21 0.0 0.0 0.00 0.00 0.00 87 1014.4
20260904132221 20 326 1.6 1.6 0.00 0.00 0.00 87 1014.4
20260904131720 20 346 6.4 8.0 0.00 0.00 0.00 87 1014.4
20260904131219 20 335 6.4 8.0 0.00 0.00 0.00 88 1014.0
20260904130721 20 333 0.0 1.6 0.00 0.00 0.00 90 1014.4
20260904125720 20 338 3.2 4.8 0.00 0.00 0.00 90 1014.4
20260904125218 20 327 4.8 8.0 0.00 0.00 0.00 89 1014.4
20260904124717 19 334 6.4 9.7 0.00 0.00 0.00 90 1014.4
20260904124219 20 332 3.2 3.2 0.00 0.00 0.00 90 1014.2
20260904123718 19 328 1.6 1.6 0.00 0.00 0.00 92 1014.4
20260904123217 19 330 3.2 3.2 0.00 0.00 0.00 92 1014.4
20260904122716 19 342 4.8 8.0 0.00 0.00 0.00 91 1014.4
20260904122217 19 331 0.0 1.6 0.00 0.00 0.00 92 1014.0
20260904121717 18 341 4.8 8.0 0.00 0.00 0.00 92 1014.4
20260904121246 18 331 1.6 3.2 0.00 0.00 0.00 94 1014.0
20260904120746 18 337 3.2 4.8 0.00 0.00 0.00 96 1014.0
20260904115245 18 0.0 0.0 0.00 0.00 0.00 99 1014.0
20260904114744 17 0.0 0.0 0.00 0.00 0.00 99 1014.0
20260904114345 16 0.0 0.0 0.00 0.00 0.00 99 1014.0
20260904113745 16 0.0 0.0 0.00 0.00 0.00 99 1014.0
20260904113343 15 0.0 0.0 0.00 0.00 0.00 99 1014.0
20260904112742 15 0.0 0.0 0.00 0.00 0.00 99 1013.8
20260904112241 15 0.0 0.0 0.00 0.00 0.00 99 1014.0
20260904111743 15 0.0 0.0 0.00 0.00 0.00 99 1013.7
20260904111242 15 0.0 0.0 0.00 0.00 0.00 99 1014.0
20260904110741 15 0.0 0.0 0.00 0.00 0.00 99 1013.7
20260904110242 15 0.0 0.0 0.00 0.00 0.00 99 1013.7
20260904105741 15 333 3.2 3.2 0.00 0.00 0.00 99 1013.7
20260904105242 15 327 3.2 3.2 0.00 0.00 0.00 99 1013.7
20260904104239 14 329 3.2 4.8 0.00 0.00 0.00 99 1013.7
20260904103740 14 325 3.2 3.2 0.00 0.00 0.00 99 1013.7
20260904102739 14 323 1.6 1.6 0.00 0.00 0.00 99 1013.7
20260904102239 14 327 3.2 3.2 0.00 0.00 0.00 99 1013.7
20260904101739 14 329 3.2 3.2 0.00 0.00 0.00 99 1013.5
20260904101238 14 327 1.6 1.6 0.00 0.00 0.00 99 1013.3
20260904100737 14 325 1.6 1.6 0.00 0.00 0.00 99 1013.3
20260904100236 14 326 0.0 1.6 0.00 0.00 0.00 99 1013.5
20260904095737 14 323 3.2 3.2 0.00 0.00 0.00 99 1013.3
20260904095237 14 325 3.2 3.2 0.00 0.00 0.00 99 1013.3
20260904094736 15 317 3.2 3.2 0.00 0.00 0.00 99 1013.3
20260904094237 14 323 3.2 3.2 0.00 0.00 0.00 99 1013.3
20260904093736 14 321 1.6 1.6 0.00 0.00 0.00 99 1013.3
20260904093235 15 322 1.6 1.6 0.00 0.00 0.00 99 1013.3
20260904092734 15 321 3.2 3.2 0.00 0.00 0.00 99 1013.3
20260904092234 15 323 3.2 3.2 0.00 0.00 0.00 99 1013.3
20260904091735 15 326 3.2 3.2 0.00 0.00 0.00 99 1013.3
20260904091234 15 331 4.8 4.8 0.00 0.00 0.00 99 1013.3
20260904090733 15 318 3.2 4.8 0.00 0.00 0.00 99 1013.3
20260904090232 15 332 3.2 3.2 0.00 0.00 0.00 99 1013.3
20260904085733 15 319 3.2 3.2 0.00 0.00 0.00 99 1013.3
20260904085233 15 325 3.2 3.2 0.00 0.00 0.00 99 1013.3
20260904084732 15 323 3.2 3.2 0.00 0.00 0.00 99 1013.3
20260904084231 15 319 3.2 3.2 0.00 0.00 0.00 99 1013.3
20260904083732 15 320 3.2 3.2 0.00 0.00 0.00 99 1013.3
20260904083232 15 321 3.2 3.2 0.00 0.00 0.00 99 1013.3
20260904082731 15 325 3.2 3.2 0.00 0.00 0.00 99 1013.3
20260904082230 15 317 3.2 3.2 0.00 0.00 0.00 99 1013.3
20260904081829 15 322 3.2 3.2 0.00 0.00 0.00 99 1013.3
20260904081231 15 325 1.6 1.6 0.00 0.00 0.00 99 1013.3
20260904080731 15 326 1.6 1.6 0.00 0.00 0.00 99 1013.3
20260904080229 15 325 0.0 1.6 0.00 0.00 0.00 99 1013.3
20260904075729 15 0.0 0.0 0.00 0.00 0.00 99 1013.3
20260904075229 15 326 1.6 1.6 0.00 0.00 0.00 99 1013.3
20260904074728 15 323 1.6 1.6 0.00 0.00 0.00 99 1013.3
20260904074227 15 323 1.6 1.6 0.00 0.00 0.00 99 1013.3
20260904073228 15 324 3.2 3.2 0.00 0.00 0.00 99 1013.7
20260904072727 15 326 1.6 3.2 0.00 0.00 0.00 99 1013.5
20260904072226 15 322 3.2 3.2 0.00 0.00 0.00 99 1013.7
20260904071727 15 322 1.6 3.2 0.00 0.00 0.00 99 1013.7
20260904071226 15 328 1.6 3.2 0.00 0.00 0.00 99 1013.7
20260904070726 15 0.0 0.0 0.00 0.00 0.00 99 1013.7
20260904070225 15 322 1.6 3.2 0.00 0.00 0.00 99 1013.7
20260904065724 15 326 1.6 1.6 0.00 0.00 0.00 99 1013.7
20260904065225 15 329 3.2 3.2 0.00 0.00 0.00 99 1013.7
20260904064724 15 326 1.6 3.2 0.00 0.00 0.00 99 1013.7
20260904064224 15 325 1.6 1.6 0.00 0.00 0.00 99 1013.7
20260904063723 15 327 1.6 1.6 0.00 0.00 0.00 99 1013.8
20260904063224 15 322 1.6 3.2 0.00 0.00 0.00 99 1013.7
20260904062732 15 329 3.2 3.2 0.00 0.00 0.00 99 1013.7
20260904062223 15 322 1.6 3.2 0.00 0.00 0.00 99 1013.7
20260904061722 15 320 3.2 3.2 0.00 0.00 0.00 99 1014.0
20260904061222 15 327 1.6 1.6 0.00 0.00 0.00 99 1014.0